Location: N�rnberg
(49.4489°N, 11.0797°E)
Time: 02:18:46
(UTC+02:00)

ISS - Visible Passes

Search period start: 23 July 2018 00:00
Search period end: 02 August 2018 00:00
Orbit: 402 x 408 km, 51.6° (Epoch: 23 July)

Date Brightness Start Highest point End Pass type
(mag) Time Alt. Az. Time Alt. Az. Time Alt. Az.
23 Jul -3.4 01:15:55 10° WNW 01:19:12 63° N 01:20:53 25° E visible
23 Jul -1.7 02:52:29 10° WNW 02:53:22 17° W 02:53:22 17° W visible
23 Jul -3.8 22:47:03 10° WSW 22:50:20 82° NNW 22:53:38 10° ENE visible
24 Jul -3.2 00:23:46 10° WNW 00:27:01 56° N 00:29:11 19° ENE visible
24 Jul -2.1 02:00:19 10° WNW 02:01:47 24° WNW 02:01:47 24° WNW visible
24 Jul -3.9 21:54:57 10° WSW 21:58:13 73° SSE 22:01:30 10° ENE visible
24 Jul -3.2 23:31:34 10° W 23:34:49 56° N 23:38:04 10° ENE visible
25 Jul -3.3 01:08:10 10° WNW 01:10:49 54° WNW 01:10:49 54° WNW visible
25 Jul -3.3 22:39:21 10° W 22:42:36 62° N 22:45:53 10° ENE visible
26 Jul -3.5 00:16:02 10° WNW 00:19:19 67° NNE 00:20:04 47° ENE visible
26 Jul -1.0 01:52:36 10° WNW 01:52:41 10° W 01:52:41 10° W visible
26 Jul -3.6 21:47:08 10° W 21:50:24 75° NNW 21:53:42 10° ENE visible
26 Jul -3.3 23:23:51 10° WNW 23:27:06 58° N 23:29:24 18° E visible
27 Jul -2.2 01:00:24 10° WNW 01:02:01 26° W 01:02:01 26° W visible
27 Jul -3.2 22:31:37 10° W 22:34:52 56° N 22:38:07 10° E visible
28 Jul -3.9 00:08:12 10° WNW 00:11:24 83° W 00:11:24 83° W visible
28 Jul -3.2 21:39:22 10° W 21:42:37 59° N 21:45:53 10° ENE visible
28 Jul -3.7 23:16:01 10° WNW 23:19:19 72° NNE 23:20:49 29° E visible
29 Jul -1.4 00:52:38 10° W 00:53:26 15° W 00:53:26 15° W visible
29 Jul -3.3 22:23:49 10° WNW 22:27:04 60° N 22:30:16 10° E visible
30 Jul -3.1 00:00:22 10° WNW 00:02:53 43° WSW 00:02:53 43° WSW visible
30 Jul -3.2 21:31:33 10° WNW 21:34:48 56° N 21:38:02 10° E visible
30 Jul -3.9 23:08:07 10° WNW 23:11:25 78° SSW 23:12:21 43° ESE visible
31 Jul -3.8 22:15:54 10° WNW 22:19:12 78° NNE 22:21:50 15° ESE visible
31 Jul -2.1 23:52:35 10° W 23:54:29 24° WSW 23:54:29 24° WSW visible
01 Aug -3.4 23:00:13 10° WNW 23:03:23 45° SSW 23:03:59 39° S visible
